• Join FlightAware (Why Join?)
  • Login
  • US Flag 
03:45PM EST


 

Airport Tracker/Info


-or-


 

Live Flight TrackerFlight Track Log ✈ N207BG ✈ 25-Jul-2013 ✈ KCYS - KBHM

Flight Track Log - Related Links

Times and Time Zones

All times are in EDT time to prevent confusion due to time zone crossing. See the N207BG flight status page for this flight to view local times or setup timezone preferences in your user account.

Time Position Orientation Groundspeed Altitude Reporting Facility
EDT Latitude Longitude Course Direction KTS MPH feet Rate Location/Type
11:05PM 41.1583 -104.8481 112° Southeast 189 217 7,800  Level Denver Center
11:06PM 41.1289 -104.8906 227° Southwest 216 249 10,300 2,049 Climbing Denver Center
11:07PM 41.0869 -104.8181 127° Southeast 224 258 12,000 1,770 Climbing Denver Center
11:08PM 41.0483 -104.7200 118° Southeast 281 323 13,900 1,902 Climbing Denver Center
11:09PM 41.0064 -104.6011 115° Southeast 309 356 15,900 1,561 Climbing Denver Center
11:10PM 40.9079 -104.0138 112° Southeast  Level Estimated
11:10PM 40.9656 -104.4878 115° Southeast 330 380 17,100  Level Denver Center
11:11PM 40.9208 -104.3681 116° Southeast 351 404 17,800 1,073 Climbing Denver Center
11:12PM 40.8775 -104.2503 116° Southeast 356 410 19,300 1,770 Climbing Denver Center
11:13PM 40.8339 -104.1358 117° Southeast 349 402 21,400 1,951 Climbing Denver Center
11:14PM 40.7914 -104.0242 117° Southeast 342 394 23,300 1,415 Climbing Denver Center
11:15PM 40.7469 -103.9072 117° Southeast 353 406 24,300 984 Climbing Denver Center
11:16PM 40.7097 -103.8064 116° Southeast 374 430 25,300 1,512 Climbing Denver Center
11:17PM 40.6439 -103.6353 117° Southeast 374 430 27,400 1,805 Climbing Denver Center
11:18PM 40.5975 -103.5139 117° Southeast 372 428 29,000 1,415 Climbing Denver Center
11:19PM 40.5503 -103.3933 117° Southeast 370 426 30,300 1,122 Climbing Denver Center
11:20PM 40.5017 -103.2706 117° Southeast 378 435 31,300 976 Climbing Denver Center
11:21PM 40.4536 -103.1453 117° Southeast 383 441 32,300 976 Climbing Denver Center
11:22PM 40.4042 -103.0192 117° Southeast 388 447 33,300 984 Climbing Denver Center
11:23PM 40.3553 -102.8919 117° Southeast 389 448 34,300 976 Climbing Denver Center
11:24PM 40.3028 -102.7639 118° Southeast 397 457 35,300 1,073 Climbing Denver Center
11:25PM 40.2453 -102.6172 117° Southeast 392 451 36,500 976 Climbing Denver Center
11:26PM 40.1967 -102.4956 118° Southeast 394 453 37,300 780 Climbing Denver Center
11:27PM 40.1475 -102.3728 118° Southeast 398 458 38,100 836 Climbing Denver Center
11:28PM 40.0914 -102.2297 117° Southeast 398 458 39,000 829 Climbing Denver Center
11:29PM 40.0428 -102.1069 117° Southeast 398 458 39,800 829 Climbing Denver Center
11:30PM 39.9847 -101.9658 118° Southeast 397 457 40,700 585 Climbing Denver Center
11:31PM 39.9361 -101.8461 118° Southeast 393 452 41,000 146 Climbing Denver Center
11:32PM 39.8775 -101.7008 118° Southeast 404 465 41,000  Level Denver Center
11:33PM 39.8250 -101.5739 118° Southeast 415 478 41,000  Level Denver Center
11:34PM 39.7722 -101.4450 118° Southeast 422 486 41,000  Level Denver Center
11:35PM 39.7100 -101.2917 118° Southeast 430 495 41,000  Level Denver Center
11:36PM 39.6547 -101.1631 119° Southeast 428 493 41,000  Level Denver Center
11:37PM 39.5911 -101.0103 118° Southeast 430 495 41,000  Level Denver Center
11:38PM 39.5372 -100.8794 118° Southeast 431 496 41,000  Level Denver Center
11:39PM 39.4831 -100.7494 118° Southeast 430 495 41,000  Level Denver Center
11:40PM 39.4186 -100.5989 119° Southeast 429 494 41,000  Level Denver Center
11:42PM 39.3631 -100.4678 119° Southeast 434 499 41,000  Level Denver Center
11:43PM 39.2994 -100.3142 118° Southeast 435 501 41,000  Level Denver Center
11:44PM 39.2425 -100.1850 120° Southeast 434 499 41,000  Level Denver Center
11:45PM 39.1775 -100.0325 119° Southeast 435 501 41,000  Level Denver Center
11:46PM 39.1183 -99.8958 119° Southeast 433 498 41,000  Level Denver Center
11:47PM 39.0619 -99.7653 119° Southeast 433 498 41,000  Level Denver Center
11:48PM 39.0056 -99.6361 119° Southeast 432 497 41,000  Level Denver Center
11:48PM 38.9650 -99.5447 120° Southeast 431 496 41,000 340 Level Kansas City Center
11:49PM 38.8956 -99.3836 119° Southeast 429 494 41,600 793 Climbing Kansas City Center
11:50PM 38.8386 -99.2572 120° Southeast 416 479 42,600 992 Climbing Kansas City Center
11:51PM 38.7942 -99.1253 113° Southeast 400 460 43,600 738 Climbing Kansas City Center
11:52PM 38.7478 -98.9972 115° Southeast 396 456 44,100 492 Climbing Kansas City Center
11:53PM 38.7014 -98.8692 115° Southeast 395 455 44,600 443 Climbing Kansas City Center
11:54PM 38.6544 -98.7381 115° Southeast 401 461 45,000 197 Climbing Kansas City Center
11:55PM 38.6061 -98.6058 115° Southeast 407 468 45,000  Level Kansas City Center
11:57PM 38.5569 -98.4708 115° Southeast 415 478 45,000  Level Kansas City Center
11:58PM 38.5069 -98.3300 114° Southeast 429 494 45,000  Level Kansas City Center
11:59PM 38.4553 -98.1886 115° Southeast 436 502 45,000  Level Kansas City Center
12:00AM 38.4022 -98.0450 115° Southeast 444 511 45,000  Level Kansas City Center
12:01AM 38.3497 -97.9014 115° Southeast 444 511 45,000  Level Kansas City Center
12:02AM 38.2975 -97.7600 115° Southeast 441 507 45,000  Level Kansas City Center
12:03AM 38.2456 -97.6192 115° Southeast 438 504 45,000  Level Kansas City Center
12:04AM 38.1933 -97.4814 116° Southeast 431 496 45,000  Level Kansas City Center
12:05AM 38.1422 -97.3461 116° Southeast 424 488 45,000  Level Kansas City Center
12:06AM 38.0903 -97.2111 116° Southeast 421 484 45,000  Level Kansas City Center
12:07AM 38.0394 -97.0744 115° Southeast 423 487 45,000  Level Kansas City Center
12:08AM 37.9869 -96.9397 116° Southeast 424 488 45,000  Level Kansas City Center
12:09AM 37.9353 -96.8047 116° Southeast 423 487 45,000  Level Kansas City Center
12:10AM 37.8831 -96.6692 116° Southeast 428 493 45,000  Level Kansas City Center
12:11AM 37.8306 -96.5339 116° Southeast 427 491 45,000  Level Kansas City Center
12:12AM 37.7781 -96.3975 116° Southeast 428 493 45,000  Level Kansas City Center
12:13AM 37.7242 -96.2608 116° Southeast 432 497 45,000  Level Kansas City Center
12:14AM 37.6639 -96.1036 116° Southeast 432 497 45,000  Level Kansas City Center
12:15AM 37.6108 -95.9664 116° Southeast 433 498 45,000  Level Kansas City Center
12:16AM 37.5567 -95.8297 117° Southeast 435 501 45,000  Level Kansas City Center
12:17AM 37.5011 -95.6992 118° Southeast 425 489 45,000  Level Kansas City Center
12:18AM 37.4478 -95.5636 116° Southeast 426 490 45,000  Level Kansas City Center
12:19AM 37.3936 -95.4228 116° Southeast 436 502 45,000  Level Kansas City Center
12:20AM 37.3381 -95.2889 118° Southeast 436 502 45,000  Level Kansas City Center
12:21AM 37.2844 -95.1536 116° Southeast 432 497 45,000  Level Kansas City Center
12:22AM 37.2297 -95.0189 117° Southeast 433 498 45,000  Level Kansas City Center
12:23AM 37.1744 -94.8842 117° Southeast 431 496 45,000  Level Kansas City Center
12:24AM 37.1197 -94.7511 117° Southeast 430 495 45,000  Level Kansas City Center
12:25AM 37.0667 -94.6197 117° Southeast 424 488 45,000  Level Kansas City Center
12:26AM 37.0119 -94.4853 117° Southeast 427 491 45,000  Level Kansas City Center
12:27AM 36.9564 -94.3508 117° Southeast 430 495 45,000  Level Kansas City Center
12:28AM 36.8997 -94.2169 118° Southeast 432 497 45,000  Level Kansas City Center
12:29AM 36.8425 -94.0825 118° Southeast 434 499 45,000  Level Kansas City Center
12:30AM 36.7864 -93.9514 118° Southeast 430 495 45,000  Level Kansas City Center
12:31AM 36.7306 -93.8175 117° Southeast 431 496 45,000  Level Kansas City Center
12:32AM 36.6719 -93.6792 118° Southeast 430 495 45,000  Level Kansas City Center
12:33AM 36.6161 -93.5481 118° Southeast 429 494 45,000  Level Kansas City Center
12:34AM 36.5600 -93.4167 118° Southeast 430 495 45,000  Level Kansas City Center
12:35AM 36.5033 -93.2833 118° Southeast 434 499 45,000  Level Kansas City Center
12:36AM 36.4464 -93.1494 118° Southeast 437 503 45,000  Level Kansas City Center
12:37AM 36.3900 -93.0186 118° Southeast 432 497 45,000  Level Kansas City Center
12:38AM 36.3311 -92.8817 118° Southeast 433 498 45,000  Level Memphis Center
12:39AM 36.2775 -92.7461 116° Southeast 433 498 45,000  Level Memphis Center
12:40AM 36.2217 -92.6106 117° Southeast 440 506 45,000  Level Memphis Center
12:41AM 36.1656 -92.4781 118° Southeast 440 506 45,000  Level Memphis Center
12:42AM 36.1117 -92.3456 117° Southeast 440 506 45,000  Level Memphis Center
12:43AM 36.0572 -92.2133 117° Southeast 440 506 45,000  Level Memphis Center
12:44AM 36.0031 -92.0786 116° Southeast 440 506 45,000  Level Memphis Center
12:45AM 35.9339 -91.9389 121° Southeast 435 501 45,000  Level Memphis Center
12:46AM 35.8917 -91.8150 113° Southeast 435 501 45,000  Level Memphis Center
12:47AM 35.8347 -91.6833 118° Southeast 435 501 45,000  Level Memphis Center
12:48AM 35.7817 -91.5519 116° Southeast 430 495 45,000  Level Memphis Center
12:49AM 35.7225 -91.4208 119° Southeast 430 495 45,000  Level Memphis Center
12:50AM 35.6631 -91.2819 118° Southeast 435 501 45,000  Level Memphis Center
12:51AM 35.6097 -91.1486 116° Southeast 430 495 45,000  Level Memphis Center
12:52AM 35.5522 -91.0153 118° Southeast 430 495 45,000  Level Memphis Center
12:53AM 35.4964 -90.8850 118° Southeast 430 495 45,000  Level Memphis Center
12:54AM 35.4386 -90.7547 119° Southeast 430 495 45,000  Level Memphis Center
12:55AM 35.3889 -90.6372 117° Southeast 430 495 45,000  Level Memphis Center
12:56AM 35.3306 -90.5047 118° Southeast 439 505 45,000  Level Memphis Center
12:57AM 35.2744 -90.3722 117° Southeast 439 505 45,000  Level Memphis Center
12:58AM 35.2181 -90.2428 118° Southeast 439 505 45,000  Level Memphis Center
12:59AM 35.1594 -90.1133 119° Southeast 439 505 45,000  Level Memphis Center
01:00AM 35.1028 -89.9814 118° Southeast 439 505 45,000  Level Memphis Center
01:01AM 35.0439 -89.8397 117° Southeast 439 505 45,000  Level Memphis Center
01:02AM 34.9847 -89.7031 118° Southeast 439 505 45,000  Level Memphis Center
01:03AM 34.9214 -89.5644 119° Southeast 455 524 45,000 -200 Level Memphis Center
01:04AM 34.8578 -89.4358 121° Southeast 450 518 44,600 -850 Descending Memphis Center
01:05AM 34.8047 -89.3200 119° Southeast 445 512 43,300 -1,400 Descending Memphis Center
01:06AM 34.7472 -89.1944 119° Southeast 440 506 41,800 -1,550 Descending Memphis Center
01:07AM 34.6875 -89.0664 120° Southeast 440 506 40,200 -1,550 Descending Memphis Center
01:08AM 34.6278 -88.9361 119° Southeast 440 506 38,700 -1,350 Descending Memphis Center
01:09AM 34.5742 -88.8158 118° Southeast 440 506 37,500 -1,400 Descending Memphis Center
01:10AM 34.5078 -88.6786 120° Southeast 435 501 35,900 -1,900 Descending Memphis Center
01:11AM 34.4367 -88.5264 119° Southeast 454 522 33,700 -2,100 Descending Memphis Center
01:12AM 34.3761 -88.3942 119° Southeast 454 522 31,700 -2,000 Descending Memphis Center
01:13AM 34.3158 -88.2650 119° Southeast 449 517 29,700 -1,950 Descending Memphis Center
01:14AM 34.2550 -88.1281 118° Southeast 462 532 27,800 -2,000 Descending Memphis Center
01:15AM 34.1961 -88.0017 119° Southeast 453 521 25,700 -2,350 Descending Memphis Center
01:16AM 34.1417 -87.8778 118° Southeast 436 502 23,100 -2,368 Descending Memphis Center
01:18AM 34.0253 -87.6481 121° Southeast 413 475 18,200 -2,463 Descending Atlanta Center
01:19AM 33.9703 -87.5256 118° Southeast 386 444 15,300 -2,500 Descending Atlanta Center
01:20AM 33.9211 -87.4233 120° Southeast 367 422 13,200 -2,050 Descending Atlanta Center
01:21AM 33.8756 -87.3264 119° Southeast 354 407 11,200 -2,000 Descending Atlanta Center
01:22AM 33.8297 -87.2422 123° Southeast 328 377 9,200 -1,750 Descending Atlanta Center
01:23AM 33.7772 -87.1728 132° Southeast 297 342 7,700 -1,500 Descending Atlanta Center
01:24AM 33.7228 -87.1033 133° Southeast 284 327 6,200 -1,500 Descending Atlanta Center
01:25AM 33.6722 -87.0392 133° Southeast 274 315 4,700 -1,350 Descending Atlanta Center
01:26AM 33.6194 -86.9750 135° Southeast 274 315 3,500 -1,150 Descending Atlanta Center
01:27AM 33.5731 -86.9111 131° Southeast 268 308 2,400 -600 Descending Atlanta Center
01:28AM 33.5428 -86.8553 123° Southeast 233 268 2,300 -486 Descending Atlanta Center
01:30AM 33.5400 -86.7953 93° East 121 139 1,200 -750 Descending Atlanta Center
01:32AM 33.5500 -86.7500 140° Southeast  Level FlightAware Approximate